Location: Gleizolles
(44.4833°N, 6.7667°E)
Time: 23:35:44
(UTC+00:00)

S-56A Canister/Altair - Pass Details

Date: 02 July 2024
Orbit: 638 x 2488 km, 38.9° (Epoch: 24 July)

Event Time Altitude Azimuth Distance (km) Brightness Sun altitude
Rises 21:55:09 0° 275° (W) 4,110 11.7 -18.7°
Reaches altitude 10° 21:57:43 10° 269° (W) 3,363 11.1 -18.8°
Maximum altitude 22:05:57 45° 200° (SSW) 2,231 9.5 -19.4°
Enters shadow 22:12:29 26° 146° (SSE) 3,375 10.2 -19.8°
Drops below altitude 10° 22:17:43 10° 134° (SE) 4,752 - -20.2°
Sets 22:22:06 0° 129° (SE) 5,942 - -20.4°
